Location: East Irvine
(33.6759°N, 117.7598°W)
Time: 01:06:54
(UTC+00:00)

OAO 2 Rocket - Pass Details

Date: 15 November 2025
Orbit: 669 x 734 km, 35.0° (Epoch: 07 December)

Event Time Altitude Azimuth Distance (km) Brightness Sun altitude
Rises 01:21:51 0° 260° (W) 3,041 9.0 -7.4°
Reaches altitude 10° 01:24:13 10° 261° (W) 2,136 7.5 -7.9°
Maximum altitude 01:29:15 86° 351° (N) 705 3.3 -8.9°
Enters shadow 01:33:56 12° 80° (E) 2,016 5.0 -9.8°
